OneWeb SL0569

operational
NORAD ID: 55148 Int'l Des: 2023-004 Owner: ONEWEBN Country: UK Constellation: oneweb
LEOCIRCULARPOLARONEWEB_TYPE

关于 OneWeb SL0569

正在加载描述...

实时位置

正在加载3D地球...

即将过境

高度历史

Altitude vs Time

uPlot chart will show altitude changes over time

两行轨道根数

1 55148U 23004J 26037.28736634 .00000163 00000-0 41189-3 0 9995
2 55148 87.9036 346.2288 0001493 113.1080 247.0206 13.13471929152999
Epoch: Feb 6, 2026 • Age: 8 hours

当前状态

高度 1221.0 km
速度 7.25 km/s
星下点 69.29°N, 3.47°W
发射日期 Jan 10, 2023
运行时间 3 years
类型 internet

技术详情

分类 Payload
质量 148.00 kg
干质量 140.00 kg
总质量 148.00 kg
长度 1.30 m
直径 1.00 m
跨度 5.00 m
形状 Trapezoid+2 pan
制造商 ONEWUS
平台类型 ARROW
阶段状态 In Orbit
所有者/国家 ONEWEBN/UK

大型星座

Loading constellations...